Location: Sungai Apap
(2.6167°N, 113.3833°E)
Time: 14:57:48
(UTC+00:00)

ARIANE 5 R/B - Pass Details

Date: 25 May 2024
Orbit: 747 x 794 km, 98.8° (Epoch: 12 June)

Event Time Altitude Azimuth Distance (km) Brightness Sun altitude
Rises 21:27:59 0° 4° (N) 3,184 6.1 -12.0°
Reaches altitude 10° 21:30:19 10° 360° (N) 2,258 5.2 -11.4°
Maximum altitude 21:35:09 55° 283° (WNW) 894 2.6 -10.3°
Drops below altitude 10° 21:40:00 10° 206° (SSW) 2,261 4.5 -9.2°
Sets 21:42:20 0° 201° (SSW) 3,188 5.3 -8.6°
